Mora, MN

1:51 PM CDT on July 20, 2017 (GMT -0500)
Mora Municipal

Weather History for KJMR - September, 2012

Change the Weather History Date:

Friday, September 21, 2012

  Actual Average Record
Temperature  
Mean Temperature 47 °F -  
Max Temperature 59 °F 64 °F 82 °F (1936)
Min Temperature 35 °F 40 °F 26 °F (1982)
Degree Days  
Heating Degree Days 18    
Moisture  
Dew Point 37 °F    
Average Humidity 71    
Maximum Humidity 100    
Minimum Humidity 34    
Precipitation  
Precipitation 0.04 in - - ()
Sea Level Pressure  
Sea Level Pressure 29.84 in    
Wind  
Wind Speed 5 mph (NW)    
Max Wind Speed 24 mph    
Max Gust Speed 41 mph    
Visibility 10 miles    
Events Rain    
Averages and records for this station are not official NWS values.
T = Trace of Precipitation, MM = Missing Value Source: NWS Daily Summary

Daily Weather History Graph

Daily Weather History Graph

Search for Another Location

Airport or City:

Trip Planner

Search our weather history database for the weather conditions in past years. The results will help you decide how hot, cold, wet, or windy it might be!

Date:

Astronomy

Sep. 21, 2012 Rise Set
Actual Time 6:59 AM CDT 7:11 PM CDT
Civil Twilight 6:29 AM CDT 7:41 PM CDT
Nautical Twilight 5:54 AM CDT 8:16 PM CDT
Astronomical Twilight 5:18 AM CDT 8:52 PM CDT
Moon 1:41 PM CDT (9/21) 10:53 PM CDT (9/21)
Length of Visible Light 13h 11m
Length of Day
12h 12m
Waxing Crescent, 37% of the Moon is Illuminated
Sep 21
Waxing Crescent
Sep 22
First Quarter
Sep 29
Full
Oct 8
Last Quarter
Oct 15
New

Hourly Weather History & Observations

Time (CDT) Temp. Windchill Dew Point Humidity Pressure Visibility Wind Dir Wind Speed Gust Speed Precip Events Conditions
12:00 AM 46.4 °F 43.5 °F 42.8 °F 87% 29.87 in 7.0 mi West 5.8 mph - 0.01 in Rain Light Rain
12:20 AM 46.4 °F 42.9 °F 42.8 °F 87% 29.87 in 10.0 mi West 6.9 mph - 0.02 in Rain Light Rain
12:39 AM 44.6 °F 42.2 °F 41.0 °F 87% 29.88 in 10.0 mi West 4.6 mph - 0.03 in Rain Light Rain
1:00 AM 44.6 °F 40.7 °F 41.0 °F 87% 29.88 in 10.0 mi WNW 6.9 mph - N/A Rain Rain
1:20 AM 44.6 °F 41.4 °F 41.0 °F 87% 29.86 in 10.0 mi WSW 5.8 mph - 0.02 in Rain Light Rain
1:40 AM 44.6 °F 41.4 °F 41.0 °F 87% 29.86 in 10.0 mi SW 5.8 mph - 0.02 in   Scattered Clouds
2:00 AM 44.6 °F 43.1 °F 42.8 °F 93% 29.86 in 10.0 mi WSW 3.5 mph - N/A   Clear
2:20 AM 44.6 °F 43.1 °F 42.8 °F 93% 29.86 in 10.0 mi West 3.5 mph - N/A   Clear
2:40 AM 42.8 °F - 41.0 °F 93% 29.86 in 10.0 mi Calm Calm - N/A   Clear
3:00 AM 42.8 °F - 41.0 °F 93% 29.85 in 10.0 mi Calm Calm - N/A   Clear
3:20 AM 42.8 °F - 41.0 °F 93% 29.85 in 10.0 mi Calm Calm - N/A   Clear
3:40 AM 41.0 °F - 39.2 °F 93% 29.85 in 10.0 mi Calm Calm - N/A   Clear
4:00 AM 41.0 °F 39.0 °F 39.2 °F 93% 29.85 in 10.0 mi West 3.5 mph - N/A   Clear
4:20 AM 41.0 °F - 39.2 °F 93% 29.85 in 10.0 mi Calm Calm - N/A   Scattered Clouds
4:40 AM 41.0 °F 39.0 °F 37.4 °F 87% 29.85 in 10.0 mi West 3.5 mph - N/A   Scattered Clouds
5:00 AM 39.2 °F - 37.4 °F 93% 29.85 in 10.0 mi Calm Calm - N/A   Scattered Clouds
5:20 AM 37.4 °F - 35.6 °F 93% 29.84 in 10.0 mi Calm Calm - N/A   Clear
5:40 AM 37.4 °F - 35.6 °F 93% 29.85 in 1.2 mi Calm Calm - N/A   Mist
6:00 AM 37.4 °F - 35.6 °F 93% 29.85 in 7.0 mi Calm Calm - N/A   Clear
6:20 AM 37.4 °F - 35.6 °F 93% 29.85 in 10.0 mi Calm Calm - N/A   Clear
6:40 AM 37.4 °F - 37.4 °F 100% 29.85 in 10.0 mi Calm Calm - N/A   Clear
7:00 AM 37.4 °F - 37.4 °F 100% 29.85 in 10.0 mi Calm Calm - N/A   Clear
7:39 AM 41.0 °F - 39.2 °F 93% 29.85 in 10.0 mi Calm Calm - N/A   Mostly Cloudy
8:00 AM 41.0 °F - 39.2 °F 93% 29.85 in 10.0 mi Calm Calm - N/A   Mostly Cloudy
8:20 AM 42.8 °F - 41.0 °F 93% 29.85 in 10.0 mi Calm Calm - N/A   Mostly Cloudy
8:40 AM 44.6 °F - 42.8 °F 93% 29.85 in 10.0 mi Calm Calm - N/A   Scattered Clouds
9:00 AM 44.6 °F - 44.6 °F 100% 29.86 in 10.0 mi Calm Calm - N/A   Scattered Clouds
9:20 AM 44.6 °F - 44.6 °F 100% 29.87 in 10.0 mi Calm Calm - N/A   Scattered Clouds
9:40 AM 48.2 °F - 44.6 °F 87% 29.86 in 10.0 mi Calm Calm - N/A   Scattered Clouds
10:00 AM 50.0 °F - 44.6 °F 82% 29.86 in 10.0 mi North 3.5 mph - N/A   Clear
10:20 AM 51.8 °F - 42.8 °F 71% 29.86 in 10.0 mi North 4.6 mph - N/A   Scattered Clouds
10:40 AM 53.6 °F - 41.0 °F 62% 29.86 in 10.0 mi NNW 10.4 mph - N/A   Scattered Clouds
11:00 AM 53.6 °F - 39.2 °F 58% 29.85 in 10.0 mi NNW 8.1 mph - N/A   Scattered Clouds
11:20 AM 55.4 °F - 39.2 °F 54% 29.86 in 10.0 mi North 6.9 mph - N/A   Mostly Cloudy
11:40 AM 53.6 °F - 37.4 °F 54% 29.86 in 10.0 mi WNW 10.4 mph 17.3 mph N/A   Mostly Cloudy
12:00 PM 55.4 °F - 39.2 °F 54% 29.85 in 10.0 mi WNW 11.5 mph 17.3 mph N/A   Mostly Cloudy
12:20 PM 55.4 °F - 37.4 °F 51% 29.85 in 10.0 mi WNW 16.1 mph 23.0 mph N/A   Scattered Clouds
12:40 PM 55.4 °F - 35.6 °F 47% 29.85 in 10.0 mi NW 13.8 mph 20.7 mph N/A   Scattered Clouds
1:19 PM 55.4 °F - 33.8 °F 44% 29.84 in 10.0 mi NW 15.0 mph 24.2 mph N/A   Scattered Clouds
1:39 PM 55.4 °F - 33.8 °F 44% 29.83 in 10.0 mi North 10.4 mph 23.0 mph N/A   Clear
2:00 PM 59.0 °F - 32.0 °F 36% 29.82 in 10.0 mi WNW 13.8 mph 20.7 mph N/A   Scattered Clouds
2:20 PM 59.0 °F - 32.0 °F 36% 29.82 in 10.0 mi WNW 13.8 mph 20.7 mph N/A   Scattered Clouds
2:40 PM 55.4 °F - 32.0 °F 41% 29.82 in 10.0 mi NW 11.5 mph 19.6 mph N/A   Clear
3:00 PM 59.0 °F - 32.0 °F 36% 29.82 in 10.0 mi NW 11.5 mph 18.4 mph N/A   Clear
3:20 PM 59.0 °F - 30.2 °F 34% 29.82 in 10.0 mi WNW 10.4 mph 17.3 mph N/A   Clear
3:40 PM 59.0 °F - 30.2 °F 34% 29.81 in 10.0 mi NNW 8.1 mph 17.3 mph N/A   Clear
4:00 PM 59.0 °F - 30.2 °F 34% 29.80 in 10.0 mi West 5.8 mph - N/A   Scattered Clouds
4:20 PM 59.0 °F - 30.2 °F 34% 29.80 in 10.0 mi WNW 12.7 mph 18.4 mph N/A   Scattered Clouds
4:40 PM 59.0 °F - 30.2 °F 34% 29.80 in 10.0 mi WNW 10.4 mph - N/A   Scattered Clouds
5:00 PM 55.4 °F - 30.2 °F 38% 29.80 in 10.0 mi NNW 11.5 mph - N/A   Scattered Clouds
5:20 PM 59.0 °F - 30.2 °F 34% 29.80 in 10.0 mi NW 12.7 mph - N/A   Clear
5:40 PM 55.4 °F - 30.2 °F 38% 29.79 in 10.0 mi WNW 10.4 mph 17.3 mph N/A   Clear
6:00 PM 55.4 °F - 30.2 °F 38% 29.80 in 10.0 mi NW 5.8 mph - N/A   Clear
6:20 PM 55.4 °F - 30.2 °F 38% 29.79 in 10.0 mi WNW 10.4 mph - N/A   Clear
6:40 PM 53.6 °F - 30.2 °F 41% 29.79 in 10.0 mi WNW 4.6 mph - N/A   Clear
7:00 PM 53.6 °F - 32.0 °F 44% 29.79 in 10.0 mi West 3.5 mph - N/A   Clear
7:20 PM 50.0 °F - 32.0 °F 50% 29.79 in 10.0 mi Calm Calm - N/A   Clear
7:40 PM 50.0 °F - 33.8 °F 54% 29.78 in 10.0 mi Calm Calm - N/A   Clear
7:59 PM 48.2 °F - 35.6 °F 62% 29.78 in 10.0 mi Calm Calm - N/A   Scattered Clouds
8:20 PM 46.4 °F 39.5 °F 39.2 °F 76% 29.82 in 7.0 mi NNW 17.3 mph 32.2 mph 0.01 in Rain Light Rain
8:40 PM 44.6 °F 41.4 °F 41.0 °F 87% 29.82 in 10.0 mi NW 5.8 mph - 0.01 in Rain Light Rain
9:00 PM 42.8 °F 33.3 °F 37.4 °F 81% 29.85 in 7.0 mi NNW 24.2 mph 41.4 mph N/A Rain Rain
9:20 PM 39.2 °F 32.5 °F 35.6 °F 87% 29.87 in 10.0 mi NNW 10.4 mph 24.2 mph N/A   Overcast
9:40 PM 39.2 °F 29.8 °F 33.8 °F 81% 29.86 in 10.0 mi NNW 18.4 mph 29.9 mph 0.01 in Rain Rain
10:00 PM 37.4 °F 32.8 °F 33.8 °F 87% 29.86 in 10.0 mi NW 5.8 mph - N/A   Light Drizzle
10:20 PM 37.4 °F 32.8 °F 33.8 °F 87% 29.86 in 10.0 mi West 5.8 mph - N/A   Scattered Clouds
10:40 PM 35.6 °F 26.6 °F 32.0 °F 87% 29.88 in 5.0 mi NW 13.8 mph 34.5 mph N/A Rain Rain
11:00 PM 35.6 °F 28.0 °F 32.0 °F 87% 29.89 in 10.0 mi NNW 10.4 mph - N/A   Scattered Clouds
11:20 PM 35.6 °F 28.6 °F 32.0 °F 87% 29.89 in 10.0 mi NNW 9.2 mph 16.1 mph N/A   Clear
11:40 PM 35.6 °F 26.6 °F 32.0 °F 87% 29.89 in 10.0 mi NNW 13.8 mph 21.9 mph N/A   Scattered Clouds